Location: Dead Woman Crossing
(43.5369°N, 106.3228°W)
Time: 16:12:57
(UTC+00:00)

O/OREOS (USA 219) - Pass Details

Date: 06 July 2022
Orbit: 621 x 646 km, 72.0° (Epoch: 22 May)

Event Time Altitude Azimuth Distance (km) Brightness Sun altitude
Rises 05:45:27 0° 344° (NNW) 2,966 ? -21.0°
Reaches altitude 10° 05:47:56 10° 354° (N) 2,053 ? -21.1°
Maximum altitude 05:52:08 34° 59° (ENE) 1,078 ? -21.4°
Enters shadow 05:53:29 28° 93° (E) 1,217 ? -21.5°
